RYR496E LEZL-GCFV

Flight info

Callsign RYR496E
Flight time 1h 45m
Altitude 31000
Route CLANA N857 KORNO UN857 TERTO
Aircraft B738/M-SDE2E3FGHIRWXY/LB1

Departure

Time 2026-05-04 16:50
Airport Seville Airport (LEZL)

Arrival

Time 2026-05-04 18:35
Airport Fuerteventura Airport (GCFV)
Time Latitude Longitude Altitude Speed Heading
2026-05-04 16:29 37.42339 -5.89787 92 ft 0 kts 315°
2026-05-04 16:42 37.42338 -5.89787 92 ft 2 kts 315°
2026-05-04 16:43 37.42320 -5.89732 93 ft 4 kts 252°
2026-05-04 16:43 37.42339 -5.89694 93 ft 0 kts 225°
2026-05-04 16:45 37.42336 -5.89697 93 ft 2 kts 225°
2026-05-04 16:46 37.42163 -5.89588 94 ft 18 kts 135°
2026-05-04 16:46 37.41997 -5.89367 98 ft 17 kts 118°
2026-05-04 16:47 37.41984 -5.89037 100 ft 23 kts 89°
2026-05-04 16:47 37.41985 -5.88573 103 ft 27 kts 90°
2026-05-04 16:48 37.41988 -5.87906 106 ft 28 kts 90°
2026-05-04 16:48 37.41989 -5.87647 108 ft 26 kts 89°
2026-05-04 16:49 37.41809 -5.87488 114 ft 22 kts 243°
2026-05-04 16:49 37.41798 -5.88175 105 ft 89 kts 270°
2026-05-04 16:50 37.41804 -5.90582 496 ft 162 kts 272°
2026-05-04 16:50 37.41633 -5.93340 1922 ft 167 kts 243°
2026-05-04 16:51 37.39186 -5.94836 2499 ft 231 kts 199°
2026-05-04 16:51 37.37578 -5.95440 2773 ft 254 kts 201°
2026-05-04 16:51 37.34110 -5.96832 4294 ft 265 kts 202°
2026-05-04 16:52 37.30564 -5.98346 5838 ft 277 kts 202°
2026-05-04 16:52 37.28733 -5.99147 6663 ft 279 kts 202°
2026-05-04 16:53 37.25096 -6.00755 8479 ft 276 kts 203°
2026-05-04 16:53 37.19584 -6.03216 10534 ft 296 kts 204°
2026-05-04 16:54 37.18264 -6.03809 10647 ft 311 kts 204°
2026-05-04 16:55 37.10561 -6.09853 12910 ft 335 kts 224°
2026-05-04 16:55 37.06962 -6.13660 14233 ft 342 kts 223°
2026-05-04 16:56 37.03280 -6.17495 15540 ft 346 kts 223°
2026-05-04 16:56 36.97689 -6.23405 17401 ft 355 kts 224°
2026-05-04 16:57 36.95800 -6.25415 18013 ft 358 kts 224°
2026-05-04 16:57 36.91999 -6.29454 19096 ft 364 kts 224°
2026-05-04 16:58 36.86150 -6.35649 20667 ft 372 kts 224°
2026-05-04 16:58 36.84170 -6.37742 21172 ft 374 kts 224°
2026-05-04 16:59 36.80169 -6.41968 22140 ft 380 kts 224°
2026-05-04 17:00 36.71967 -6.50611 23876 ft 392 kts 224°
2026-05-04 17:00 36.65690 -6.57207 25124 ft 395 kts 225°
2026-05-04 17:01 36.61493 -6.61611 25855 ft 399 kts 225°
2026-05-04 17:01 36.57228 -6.66080 26588 ft 402 kts 225°
2026-05-04 17:02 36.52932 -6.70576 27312 ft 405 kts 225°
2026-05-04 17:02 36.48599 -6.75087 27992 ft 408 kts 225°
2026-05-04 17:03 36.46410 -6.77344 28317 ft 410 kts 225°
2026-05-04 17:03 36.44209 -6.79607 28640 ft 411 kts 225°
2026-05-04 17:03 36.39783 -6.84155 29264 ft 414 kts 225°
2026-05-04 17:04 36.35314 -6.88747 29743 ft 420 kts 225°
2026-05-04 17:04 36.30801 -6.93377 30323 ft 421 kts 225°
2026-05-04 17:05 36.26319 -6.97962 31036 ft 416 kts 225°
2026-05-04 17:05 36.21813 -7.02578 31060 ft 424 kts 225°
2026-05-04 17:06 36.14920 -7.09619 31065 ft 430 kts 225°
2026-05-04 17:07 36.08775 -7.15877 31068 ft 430 kts 225°
2026-05-04 17:07 36.03370 -7.21372 31064 ft 430 kts 225°
2026-05-04 17:08 35.96498 -7.28378 31067 ft 425 kts 225°
2026-05-04 17:09 35.91932 -7.32974 31075 ft 423 kts 225°
2026-05-04 17:09 35.87418 -7.37537 31069 ft 422 kts 225°
2026-05-04 17:10 35.76056 -7.48933 31087 ft 421 kts 225°
2026-05-04 17:11 35.71507 -7.53460 31084 ft 420 kts 225°
2026-05-04 17:12 35.64682 -7.60247 31078 ft 421 kts 225°
2026-05-04 17:13 35.53256 -7.71582 31101 ft 424 kts 225°
2026-05-04 17:14 35.44060 -7.80674 31087 ft 425 kts 225°
2026-05-04 17:15 35.37188 -7.87488 31090 ft 425 kts 225°
2026-05-04 17:16 35.28028 -7.96646 31092 ft 425 kts 225°
2026-05-04 17:17 35.18854 -8.05779 31083 ft 425 kts 225°
2026-05-04 17:18 35.09678 -8.14885 31096 ft 425 kts 225°
2026-05-04 17:19 35.00487 -8.23979 31091 ft 425 kts 225°
2026-05-04 17:20 34.91297 -8.33043 31082 ft 424 kts 225°
2026-05-04 17:20 34.84444 -8.39786 31091 ft 423 kts 225°
2026-05-04 17:21 34.75258 -8.48802 31092 ft 423 kts 225°
2026-05-04 17:22 34.70670 -8.53295 31098 ft 423 kts 225°
2026-05-04 17:23 34.61503 -8.62253 31097 ft 423 kts 225°
2026-05-04 17:24 34.54642 -8.68941 31099 ft 424 kts 224°
2026-05-04 17:25 34.45393 -8.77933 31099 ft 425 kts 224°
2026-05-04 17:26 34.36112 -8.86873 31098 ft 427 kts 224°
2026-05-04 17:27 34.24468 -8.98035 31098 ft 429 kts 224°
2026-05-04 17:28 34.15094 -9.06997 31101 ft 430 kts 223°
2026-05-04 17:29 34.00988 -9.20436 31097 ft 432 kts 223°
2026-05-04 17:31 33.89168 -9.31651 31103 ft 433 kts 223°
2026-05-04 17:32 33.77320 -9.42852 31096 ft 434 kts 222°
2026-05-04 17:33 33.67812 -9.51813 31097 ft 435 kts 221°
2026-05-04 17:34 33.58310 -9.60741 31100 ft 435 kts 221°
2026-05-04 17:35 33.46359 -9.71934 31094 ft 436 kts 221°
2026-05-04 17:36 33.41570 -9.76408 31103 ft 437 kts 221°
2026-05-04 17:36 33.36777 -9.80879 31097 ft 437 kts 221°
2026-05-04 17:37 33.31982 -9.85346 31097 ft 437 kts 221°
2026-05-04 17:37 33.27184 -9.89810 31085 ft 437 kts 221°
2026-05-04 17:38 33.22386 -9.94267 31097 ft 438 kts 221°
2026-05-04 17:38 33.17574 -9.98731 31099 ft 438 kts 221°
2026-05-04 17:39 33.10343 -10.05428 31099 ft 439 kts 220°
2026-05-04 17:39 33.06330 -10.09138 31097 ft 439 kts 220°
2026-05-04 17:40 33.01502 -10.13596 31099 ft 439 kts 220°
2026-05-04 17:40 32.96669 -10.18047 31098 ft 439 kts 220°
2026-05-04 17:41 32.91841 -10.22487 31092 ft 439 kts 220°
2026-05-04 17:41 32.87008 -10.26928 31093 ft 439 kts 220°
2026-05-04 17:42 32.82169 -10.31367 31092 ft 439 kts 220°
2026-05-04 17:42 32.77369 -10.35767 31091 ft 439 kts 220°
2026-05-04 17:43 32.72535 -10.40190 31097 ft 438 kts 220°
2026-05-04 17:43 32.67701 -10.44607 31092 ft 438 kts 220°
2026-05-04 17:44 32.62866 -10.49020 31094 ft 438 kts 220°
2026-05-04 17:44 32.58028 -10.53429 31090 ft 439 kts 220°
2026-05-04 17:45 32.53186 -10.57834 31096 ft 439 kts 220°
2026-05-04 17:45 32.48342 -10.62236 31086 ft 439 kts 220°
2026-05-04 17:46 32.43498 -10.66632 31064 ft 439 kts 220°
2026-05-04 17:46 32.38662 -10.71014 31080 ft 437 kts 221°
2026-05-04 17:47 32.33835 -10.75381 31087 ft 436 kts 221°
2026-05-04 17:47 32.29014 -10.79738 31087 ft 436 kts 221°
2026-05-04 17:48 32.24197 -10.84086 31086 ft 436 kts 221°
2026-05-04 17:48 32.19386 -10.88422 31087 ft 435 kts 221°
2026-05-04 17:49 32.14565 -10.92761 31087 ft 435 kts 221°
2026-05-04 17:49 32.09765 -10.97074 31084 ft 433 kts 221°
2026-05-04 17:50 32.05008 -11.01345 31079 ft 431 kts 221°
2026-05-04 17:50 32.00239 -11.05621 31086 ft 430 kts 221°
2026-05-04 17:51 31.95477 -11.09884 31084 ft 430 kts 221°
2026-05-04 17:51 31.90688 -11.14165 31083 ft 429 kts 221°
2026-05-04 17:52 31.85971 -11.18378 31083 ft 429 kts 221°
2026-05-04 17:52 31.81221 -11.22614 31078 ft 428 kts 221°
2026-05-04 17:53 31.76477 -11.26839 31080 ft 427 kts 221°
2026-05-04 17:53 31.71750 -11.31047 31083 ft 426 kts 221°
2026-05-04 17:54 31.67024 -11.35256 31083 ft 426 kts 221°
2026-05-04 17:54 31.62299 -11.39461 31081 ft 425 kts 221°
2026-05-04 17:55 31.57582 -11.43653 31081 ft 425 kts 221°
2026-05-04 17:55 31.52868 -11.47836 31070 ft 425 kts 222°
2026-05-04 17:56 31.48154 -11.52014 31076 ft 424 kts 222°
2026-05-04 17:56 31.43449 -11.56179 31075 ft 424 kts 222°
2026-05-04 17:57 31.38776 -11.60311 31076 ft 424 kts 222°
2026-05-04 17:57 31.34071 -11.64465 31080 ft 424 kts 221°
2026-05-04 17:58 31.29363 -11.68616 31075 ft 424 kts 221°
2026-05-04 17:58 31.24654 -11.72763 31063 ft 424 kts 222°
2026-05-04 17:59 31.19948 -11.76902 31071 ft 423 kts 222°
2026-05-04 18:00 31.12893 -11.83097 31077 ft 423 kts 222°
2026-05-04 18:00 31.08191 -11.87219 31077 ft 423 kts 222°
2026-05-04 18:01 31.03490 -11.91336 31077 ft 422 kts 222°
2026-05-04 18:01 30.98787 -11.95449 31076 ft 423 kts 222°
2026-05-04 18:02 30.91734 -12.01607 31068 ft 421 kts 222°
2026-05-04 18:02 30.87044 -12.05694 31084 ft 421 kts 222°
2026-05-04 18:03 30.82367 -12.09767 31075 ft 420 kts 222°
2026-05-04 18:03 30.77690 -12.13835 31076 ft 420 kts 222°
2026-05-04 18:04 30.73015 -12.17895 31073 ft 419 kts 222°
2026-05-04 18:05 30.66007 -12.23973 31052 ft 419 kts 222°
2026-05-04 18:05 30.61340 -12.28014 31068 ft 418 kts 222°
2026-05-04 18:06 30.54377 -12.34037 31078 ft 417 kts 222°
2026-05-04 18:06 30.49718 -12.38058 31077 ft 417 kts 222°
2026-05-04 18:07 30.45048 -12.42070 31079 ft 417 kts 221°
2026-05-04 18:07 30.40386 -12.46069 31075 ft 417 kts 221°
2026-05-04 18:08 30.35719 -12.50069 31070 ft 417 kts 221°
2026-05-04 18:08 30.31055 -12.54063 31067 ft 417 kts 221°
2026-05-04 18:09 30.21736 -12.62030 31076 ft 416 kts 221°
2026-05-04 18:10 30.17078 -12.66007 31075 ft 416 kts 221°
2026-05-04 18:10 30.12419 -12.69978 31073 ft 416 kts 221°
2026-05-04 18:11 30.07555 -12.73655 31080 ft 421 kts 215°
2026-05-04 18:11 30.02408 -12.76901 31072 ft 422 kts 214°
2026-05-04 18:12 29.97289 -12.80114 31077 ft 422 kts 214°
2026-05-04 18:12 29.92151 -12.83375 31073 ft 421 kts 214°
2026-05-04 18:13 29.87022 -12.86645 31071 ft 421 kts 214°
2026-05-04 18:14 29.79331 -12.91550 31071 ft 421 kts 214°
2026-05-04 18:14 29.74203 -12.94814 31056 ft 421 kts 215°
2026-05-04 18:15 29.63969 -13.01315 31068 ft 420 kts 215°
2026-05-04 18:16 29.58857 -13.04558 31070 ft 420 kts 215°
2026-05-04 18:16 29.53745 -13.07797 31073 ft 419 kts 215°
2026-05-04 18:17 29.46076 -13.12650 30593 ft 422 kts 214°
2026-05-04 18:17 29.41025 -13.15838 29524 ft 410 kts 215°
2026-05-04 18:18 29.38542 -13.17405 28927 ft 405 kts 215°
2026-05-04 18:18 29.36085 -13.18947 28377 ft 401 kts 214°
2026-05-04 18:18 29.33600 -13.20378 27822 ft 398 kts 212°
2026-05-04 18:18 29.31106 -13.21734 27286 ft 395 kts 211°
2026-05-04 18:19 29.26178 -13.24392 26216 ft 388 kts 211°
2026-05-04 18:19 29.23783 -13.25702 25699 ft 385 kts 211°
2026-05-04 18:19 29.21342 -13.27041 25169 ft 383 kts 211°
2026-05-04 18:20 29.18976 -13.28340 24641 ft 382 kts 211°
2026-05-04 18:20 29.16582 -13.29652 24111 ft 381 kts 211°
2026-05-04 18:20 29.14195 -13.30958 23551 ft 379 kts 211°
2026-05-04 18:20 29.11822 -13.32255 22966 ft 377 kts 211°
2026-05-04 18:21 29.09464 -13.33544 22412 ft 375 kts 211°
2026-05-04 18:21 29.07110 -13.34832 21878 ft 375 kts 211°
2026-05-04 18:21 29.04761 -13.36116 21350 ft 373 kts 211°
2026-05-04 18:21 29.02422 -13.37393 20836 ft 372 kts 210°
2026-05-04 18:22 29.00095 -13.38664 20329 ft 370 kts 210°
2026-05-04 18:22 28.97777 -13.39928 19819 ft 368 kts 210°
2026-05-04 18:22 28.95468 -13.41188 19316 ft 367 kts 210°
2026-05-04 18:22 28.93168 -13.42442 18807 ft 366 kts 210°
2026-05-04 18:23 28.90872 -13.43694 18288 ft 365 kts 210°
2026-05-04 18:23 28.88579 -13.44943 17717 ft 364 kts 210°
2026-05-04 18:23 28.86304 -13.46180 17191 ft 360 kts 210°
2026-05-04 18:23 28.84051 -13.47404 16675 ft 357 kts 210°
2026-05-04 18:24 28.81821 -13.48616 16210 ft 353 kts 210°
2026-05-04 18:24 28.79612 -13.49817 15739 ft 350 kts 210°
2026-05-04 18:24 28.77422 -13.51007 15258 ft 347 kts 210°
2026-05-04 18:24 28.75249 -13.52187 14786 ft 345 kts 211°
2026-05-04 18:25 28.73097 -13.53356 14294 ft 343 kts 211°
2026-05-04 18:25 28.70944 -13.54525 13773 ft 342 kts 211°
2026-05-04 18:25 28.68802 -13.55687 13258 ft 340 kts 211°
2026-05-04 18:25 28.66675 -13.56840 12763 ft 337 kts 211°
2026-05-04 18:26 28.65274 -13.57600 12444 ft 336 kts 211°
2026-05-04 18:26 28.63171 -13.58740 11972 ft 334 kts 211°
2026-05-04 18:26 28.61081 -13.59872 11516 ft 331 kts 210°
2026-05-04 18:26 28.59034 -13.60979 11055 ft 321 kts 210°
2026-05-04 18:27 28.57045 -13.62054 10618 ft 312 kts 210°
2026-05-04 18:27 28.55096 -13.63078 10189 ft 305 kts 208°
2026-05-04 18:27 28.53145 -13.64039 9752 ft 299 kts 208°
2026-05-04 18:27 28.51274 -13.64959 9319 ft 293 kts 208°
2026-05-04 18:28 28.49418 -13.65875 8789 ft 291 kts 208°
2026-05-04 18:28 28.47564 -13.66801 8223 ft 291 kts 208°
2026-05-04 18:28 28.45717 -13.67735 7666 ft 290 kts 208°
2026-05-04 18:28 28.43879 -13.68679 7123 ft 290 kts 207°
2026-05-04 18:29 28.42048 -13.69634 6587 ft 289 kts 208°
2026-05-04 18:29 28.40225 -13.70597 6030 ft 289 kts 208°
2026-05-04 18:29 28.38407 -13.71567 5475 ft 288 kts 208°
2026-05-04 18:29 28.36594 -13.72545 4921 ft 289 kts 208°
2026-05-04 18:30 28.32985 -13.74506 3934 ft 283 kts 207°
2026-05-04 18:30 28.31237 -13.75498 3515 ft 278 kts 210°
2026-05-04 18:30 28.29825 -13.76924 3173 ft 268 kts 240°
2026-05-04 18:31 28.29232 -13.78841 3047 ft 253 kts 270°
2026-05-04 18:31 28.29434 -13.80756 2937 ft 238 kts 288°
2026-05-04 18:31 28.29982 -13.82457 2849 ft 222 kts 296°
2026-05-04 18:31 28.30587 -13.84004 2748 ft 208 kts 300°
2026-05-04 18:32 28.31330 -13.85341 2578 ft 195 kts 313°
2026-05-04 18:32 28.32306 -13.86373 2207 ft 191 kts 339°
2026-05-04 18:32 28.33522 -13.86550 2120 ft 173 kts 360°
2026-05-04 18:32 28.34715 -13.86647 1881 ft 173 kts 357°
2026-05-04 18:33 28.35924 -13.86718 1642 ft 173 kts
2026-05-04 18:33 28.37119 -13.86657 1391 ft 170 kts
2026-05-04 18:33 28.38293 -13.86586 1152 ft 167 kts
2026-05-04 18:33 28.39423 -13.86548 908 ft 157 kts
2026-05-04 18:34 28.40472 -13.86541 830 ft 150 kts
2026-05-04 18:34 28.41484 -13.86514 631 ft 141 kts
2026-05-04 18:34 28.42457 -13.86481 392 ft 143 kts
2026-05-04 18:34 28.43432 -13.86439 221 ft 137 kts
2026-05-04 18:35 28.44398 -13.86405 56 ft 138 kts
2026-05-04 18:35 28.45275 -13.86376 75 ft 108 kts
2026-05-04 18:35 28.45629 -13.86365 85 ft 19 kts 352°
2026-05-04 18:35 28.45660 -13.86445 87 ft 10 kts 270°
2026-05-04 18:36 28.45662 -13.86520 93 ft 8 kts 274°
2026-05-04 18:36 28.45622 -13.86557 96 ft 8 kts 193°
2026-05-04 18:36 28.45563 -13.86560 95 ft 10 kts 181°
2026-05-04 18:36 28.45484 -13.86562 95 ft 13 kts 182°
2026-05-04 18:37 28.45393 -13.86572 96 ft 13 kts 203°
2026-05-04 18:37 28.45372 -13.86665 97 ft 13 kts 271°
2026-05-04 18:37 28.45329 -13.86735 98 ft 12 kts 186°
2026-05-04 18:37 28.45244 -13.86739 99 ft 12 kts 181°
2026-05-04 18:38 28.45160 -13.86741 99 ft 12 kts 181°
2026-05-04 18:38 28.45102 -13.86745 98 ft 6 kts 193°
2026-05-04 18:38 28.45090 -13.86768 98 ft 4 kts 256°
2026-05-04 18:38 28.45089 -13.86802 98 ft 5 kts 271°
2026-05-04 18:39 28.45089 -13.86812 98 ft 0 kts 271°
2026-05-04 18:39 28.45090 -13.86820 98 ft 0 kts 271°